Weather Roundup
Issued by NWS Corpus Christi, TX

Home | Current Version | Previous Version | Text Only | Print | Product List | Glossary On
Versions: 1 2 3 4 5 6 7 8 9 10 11 12 13 14 15 16 17 18 19 20 21 22 23 24 25 26 27 28 29 30 31 32 33 34 35 36 37 38 39 40 41 42 43 44 45 46 47 48 49 50
000
ASUS44 KCRP 032010
HRRCRP

SOUTH TEXAS REGIONAL WEATHER ROUNDUP
NATIONAL WEATHER SERVICE CORPUS CHRISTI TX
300 PM CDT MON AUG 03 2015


TXZ229>244-032100-
...CORPUS CHRISTI AREA OBSERVATIONS...

CITY           SKY/WX    TMP DP  RH WIND       PRES   REMARKS
CORPUS CHRISTI PTSUNNY   84  77  79 E7        29.88F HX  94
NAS CORPUS CHR MOSUNNY   89  76  65 E17       29.89F HX 100
ROCKPORT       MOSUNNY   92  75  57 SE15      29.89S HX 103
KINGSVILLE NAS PTSUNNY   96  79  57 S12G18    29.86F HX 114
ALICE          MOSUNNY   97  72  44 S8G18     29.85F HX 105
FALFURRIAS     SUNNY     98  68  37 SE7G16    29.84F HX 103
$$

...VICTORIA AREA OBSERVATIONS...

CITY           SKY/WX    TMP DP  RH WIND       PRES   REMARKS
VICTORIA       MOSUNNY   92  73  53 SE16      29.88F HX 100
BEEVILLE       FAIR      93  73  52 E7        29.88F HAZE    HX 102
PLEASANTON     MOSUNNY   98  63  31 E9        29.89F HX  99
SAN ANTONIO    MOSUNNY   97  62  31 E9        29.91F HX  98
$$

...LAREDO AREA OBSERVATIONS...

CITY           SKY/WX    TMP DP  RH WIND       PRES   REMARKS
LAREDO         SUNNY    100  59  25 VRB7      29.86F HX 100
COTULLA        MOSUNNY   98  62  30 E13       29.87F HX  99
DEL RIO        SUNNY     99  59  26 SE9       29.87F HX  99
MCALLEN        SUNNY    103  60  24 SE8       29.83F HX 104
HEBBRONVILLE     N/A     97  60  29 NE10G17   29.87F HX  97
$$

...OTHER TEXAS OBSERVATIONS...

CITY           SKY/WX    TMP DP  RH WIND       PRES   REMARKS
BROWNSVILLE    MOSUNNY   93  75  55 SE17G25   29.87F HX 104
HOUSTON        MOSUNNY   96  66  37 VRB5      29.89F HX  99
COL. STATION   SUNNY     96  62  32 MISG      29.90F HX  97
AUSTIN         MOSUNNY   96  60  30 MISG      29.89F HX  96
WACO           SUNNY     99  61  28 VRB7      29.90F HX  99
FORT WORTH     MOSUNNY   98  57  25 VRB5      29.89F HX  97
WICHITA FALLS  CLOUDY    86  68  54 VRB6      29.93F
LUBBOCK        PTSUNNY   91  63  39 S12       30.00F HX  92
EL PASO        MOSUNNY   91  58  32 NW7       30.03F HX  90
$$

...MARINE OBSERVATIONS...

STATION/POSITION TIME  SKY/WX   TEMP    WIND        PRES    VSBY  WAVE   SWELL
                                AIR SEA DIR/SP/G                  HT/PER HT/PER
                 (UTC)          (F)     (DEG/KT/KT) (MB)    (MI)  (FT/S) (FT/S)
PORT ARANSAS     2000            84 87  130/ 10/ 11 1013.4F
BUOY 90 E PORT A 1950            84 87   10/  6/  6 1013.3F         2/ 4   2/ 4
BUOY 45 SE BAFFI 1950            84 86  160/ 12/ 14 1012.1F         2/ 5
BUOY 200 E PT IS 1950            87 89  140/  4/  6 1014.1F         1/ 4   2/ 4
BUOY 15 E GALVES 1950            86 89  160/  6/  6 1012.7F         1
$$


USA.gov is the U.S. government's official web portal to all federal, state and local government web resources and services.